Regional Weather Roundup
Issued by NWS

Home | Current Version | Previous Version | Text Only | Print | Product List | Glossary Off
Versions: 1 2 3 4 5 6 7 8 9 10 11 12 13 14 15 16 17 18 19 20 21 22 23 24 25 26 27 28 29 30 31 32 33 34 35 36 37 38 39 40 41 42 43 44 45 46 47 48 49 50

747
ASUS45 KBOU 240807
RWRCO

WEATHER ROUNDUP FOR COLORADO
NATIONAL WEATHER SERVICE DENVER/BOULDER CO
200 AM MDT TUE MAY 24 2016

NOTE: "FAIR" INDICATES FEW OR NO CLOUDS BELOW 12000 FEET WITH NO
SIGNIFICANT WEATHER AND/OR OBSTRUCTIONS TO VISIBILITY.

COZ001>005-013-030-031-240900-
...NORTHWEST COLORADO...

CITY           SKY/WX    TMP DP  RH WIND       PRES   REMARKS
CRAIG          FAIR      40  33  76 E6        29.94F
HAYDEN         FAIR      39  28  65 E8        29.94F
MEEKER         FAIR      41  32  70 E5        29.93S
MOUNT WERNER   NOT AVBL
STEAMBOAT SPGS FAIR      39  28  65 CALM      29.96F
WALDEN         FAIR      32  27  80 SE5       30.04F WCI  27
$$

COZ006>008-011-240900-
...WEST CENTRAL VALLEYS...

CITY           SKY/WX    TMP DP  RH WIND       PRES   REMARKS
GRAND JUNCTION FAIR      50  27  40 E12       29.83S
MONTROSE       FAIR      50  25  37 SE10      29.92S
EAGLE          FAIR      43  27  52 CALM      29.98F
RIFLE          FAIR      46  30  53 CALM      29.89F
DELTA          FAIR      53  21  28 NE7       29.88S
NUCLA          FAIR      50  21  32 MISG      29.94S
$$

COZ017>023-064>068-240900-
...SOUTHWEST COLORADO...

CITY           SKY/WX    TMP DP  RH WIND       PRES   REMARKS
DURANGO        FAIR      37  25  61 CALM      29.99R
CORTEZ         FAIR      40  26  57 E3        29.95R
PAGOSA SPRINGS FAIR      38  24  55 CALM      30.05R
TELLURIDE      FAIR      50  12  21 SE8       30.09S
WOLF CREEK PAS FAIR      32  16  51 SW21G31   30.24S WCI  20
$$

COZ009-010-012-014-032>034-037-058>063-240900-
...CENTRAL COLORADO...

CITY           SKY/WX    TMP DP  RH WIND       PRES   REMARKS
ASPEN          FAIR      41  21  44 SW8       29.99F
BUENA VISTA    FAIR      39  22  50 N7        30.03S
COPPER MTN     NOT AVBL
BERTHOUD PASS  FAIR      30  21  69 S3        30.22S
COTTONWOOD PAS FAIR      46   9  21 W6        30.10F
GUNNISON       FAIR      34  23  64 CALM      30.06S
KREMMLING      FAIR      34  28  80 CALM      30.02S
LEADVILLE      FAIR      29  15  56 NE6       30.10F WCI  23
MONARCH PASS   FAIR      34  12  40 MISG      30.31S
SALIDA         FAIR      43  21  41 W7        30.09S
SUNLIGHT       FAIR      37  14  38 CALM      30.15F
WILKERSON PASS FAIR      34  18  51 SW5       30.19F WCI  30
$$

COZ069>075-240900-
...SAN LUIS VALLEY/SANGRE DE CRISTO MOUNTAINS...

CITY           SKY/WX    TMP DP  RH WIND       PRES   REMARKS
ALAMOSA        FAIR      39  25  57 CALM      30.01F
LA VETA PASS   FAIR      43  16  33 S8        30.14S
SAGUACHE       FAIR      41  23  48 NW10      30.04R
$$

COZ035-036-038>040-240900-
...NORTHERN COLORADO FRONT RANGE...

CITY           SKY/WX    TMP DP  RH WIND       PRES   REMARKS
DENVER INTL AP FAIR      48  41  76 S10       29.94F
DMNS CITY PARK   N/A     48  46  91 E8        29.94S
AURORA         PTCLDY    47  42  84 S6        29.95F
FRONT RANGE AP NOT AVBL
ERIE MUNI ARPT FAIR      45  42  90 CALM      29.94S
BOULDER MUN AP FAIR      52  43  71 SW5       29.93F
CENTENNIAL     FAIR      46  41  82 SW3       29.96S
BROOMFIELD     FAIR      48  43  81 CALM      29.95S
FORT COLLINS   FAIR      46  39  76 NE6       29.95S
LONGMONT       FAIR      48  42  80 SW3       29.95S
$$

COZ041-046-047-076>085-087-088-240900-
...PIKES PEAK/PALMER DIVIDE AND SOUTHERN FOOTHILLS...

CITY           SKY/WX    TMP DP  RH WIND       PRES   REMARKS
COLO. SPRINGS  MOCLDY    54  37  52 N6        29.96S
A. F. ACADEMY  FAIR      43  39  87 N10       29.97F
SCHRIEVER AFB  NOT AVBL
ELLICOTT       FAIR     N/A N/A N/A N7        29.93F
FALCON         CLOUDY    52  34  50 N7        29.99S
FORT CARSON    CLOUDY    55  41  58 N10       29.93R
LIMON          FAIR      44  42  93 NW6       29.92F
MONUMENT HILL  FAIR      37  36  93 W6        30.00F
TRINIDAD       FAIR      50  27  40 E3        29.90S
$$

COZ042>045-048>051-090-091-240900-
...NORTHEAST COLORADO...

CITY           SKY/WX    TMP DP  RH WIND       PRES   REMARKS
GREELEY ARPT   FAIR      46  39  76 CALM      29.94S
AKRON          MOCLDY    54  46  74 CALM      29.88F
BURLINGTON     CLOUDY    53  43  68 N8        29.84F
WRAY           CLOUDY    55  45  67 NE13      29.85
STERLING       MOCLDY    46  43  87 CALM      29.89S
HOLYOKE        FAIR      54  46  76 NW5       29.87F
FORT MORGAN    FAIR      44  40  85 NW7       29.92S
$$

COZ086-089-092>099-240900-
...SOUTHEAST COLORADO...

CITY           SKY/WX    TMP DP  RH WIND       PRES   REMARKS
PUEBLO         FAIR      59  44  57 N14       29.86S
LA JUNTA       FAIR      56  50  80 W9        29.82R
LAMAR          FAIR      53  51  93 CALM      29.75F
SPRINGFIELD      N/A     57  53  86 S15       29.83S
$$




USA.gov is the U.S. government's official web portal to all federal, state and local government web resources and services.